Location: Mauries
(43.6188°N, 0.3322°W)
Time: 20:17:40
(UTC+00:00)

CZ-4 R/B - Pass Details

Date: 14 January 2026
Orbit: 676 x 743 km, 98.7° (Epoch: 10 February)

Event Time Altitude Azimuth Distance (km) Brightness Sun altitude
Rises 05:09:01 0° 16° (NNE) 3,093 7.3 -25.4°
Reaches altitude 10° 05:11:17 10° 19° (NNE) 2,181 6.5 -25.0°
Maximum altitude 05:16:03 70° 103° (ESE) 762 4.1 -24.1°
Drops below altitude 10° 05:20:53 10° 187° (S) 2,207 6.4 -23.3°
Sets 05:23:10 0° 189° (S) 3,133 7.2 -22.9°
